Location: Baix
(44.7118°N, 4.7648°E)
Time: 22:45:44
(UTC+00:00)

Explorer 11/Cluster Stage 4 - Visible Passes

Search period start: 05 December 2020 00:00
Search period end: 15 December 2020 00:00
Orbit: 467 x 1258 km, 28.8° (Epoch: 04 December)

Date Brightness Start Highest point End Pass type
(mag) Time Alt. Az. Time Alt. Az. Time Alt. Az.
05 Dec 9.0 18:18:40 10° SSW 18:24:07 20° SSE 18:26:32 17° SE visible
05 Dec 9.4 20:06:21 10° SW 20:08:39 17° SW 20:08:39 17° SW visible
06 Dec 9.0 18:07:10 10° SSW 18:12:55 21° SSE 18:16:16 16° SE visible
06 Dec 9.2 19:55:02 10° SW 19:58:24 20° SSW 19:58:24 20° SSW visible
07 Dec 9.0 17:55:45 10° SW 18:01:42 22° S 18:06:02 14° SE visible
07 Dec 9.1 19:43:45 10° SW 19:48:10 22° SSW 19:48:10 22° SSW visible
08 Dec 9.0 17:44:25 10° SW 17:50:29 23° S 17:55:47 12° SE visible
08 Dec 9.0 19:32:32 10° SW 19:37:55 23° SSW 19:37:55 23° SSW visible
09 Dec 9.1 17:33:08 10° SW 17:39:16 24° S 17:45:26 10° SE visible
09 Dec 8.9 19:21:21 10° WSW 19:27:28 23° S 19:27:42 23° S visible
10 Dec 9.1 17:21:55 10° SW 17:28:03 24° S 17:34:19 10° SE visible
10 Dec 9.0 19:10:13 10° WSW 19:16:14 23° S 19:17:32 22° S visible
11 Dec 9.1 17:10:45 10° SW 17:16:50 25° S 17:23:08 10° SE visible
11 Dec 9.1 18:59:09 10° WSW 19:05:01 22° SSW 19:07:25 19° S visible
12 Dec 9.1 16:59:39 10° SW 17:05:37 25° S 17:11:54 10° SE visible
12 Dec 9.2 18:48:08 10° WSW 18:53:48 21° SSW 18:57:22 16° SSE visible
13 Dec 9.2 16:48:36 10° SW 16:54:25 24° S 17:00:38 10° SE visible
13 Dec 9.3 18:37:12 10° WSW 18:42:34 20° SSW 18:47:26 12° SSE visible
14 Dec 9.2 16:37:37 10° SW 16:43:14 23° S 16:49:18 10° SE visible
14 Dec 9.5 18:26:20 10° SW 18:31:21 18° SSW 18:36:30 10° SSE visible
